DateTimeUTC,F1_A11,F1_S11,BsB_S11,BsG_S11,BsR_S11,BbsB_S11,BbsG_S11,BbsR_S11,BaB_A11,BaG_A11,BaR_A11,Tu_S11,T_S11,Uu_S11,U_S11,P_S11,T1_A11
2021-09-10T11:00:00Z,00000200,21000000,,,,,,,-000.14,0000.16,0000.34,18.5,25.7,,00.0,0664.4,31.0
2021-09-10T11:01:00Z,00000200,21000000,,,,,,,-000.01,-000.57,0000.09,18.5,25.7,,00.0,0664.4,31.1
2021-09-10T11:02:00Z,00000200,21000000,,,,,,,-000.13,-000.03,0000.05,18.6,25.8,,00.0,0664.4,31.1
2021-09-10T11:03:00Z,00000200,61000000,,,,,,,0000.39,0000.65,0000.24,18.6,25.8,,00.0,0664.4,31.1
2021-09-10T11:04:00Z,00000200,41000000,0001.47,0001.23,0001.08,0000.07,0000.12,0000.13,-000.05,-000.11,0000.07,19.1,25.8,,00.0,0665.3,31.1
2021-09-10T11:05:00Z,00000200,01000000,0000.65,0000.94,0001.06,0000.62,0000.19,0000.22,0000.50,0000.30,0000.18,19.3,25.8,,00.0,0665.3,31.1
2021-09-10T11:06:00Z,00000200,01000000,0002.18,0001.07,0001.17,0000.15,-000.09,0000.20,0000.00,0000.12,0000.23,19.3,25.8,,00.0,0665.3,31.1
2021-09-10T11:07:00Z,00000200,01000000,0001.55,0001.55,0000.80,0000.63,0000.23,0000.21,0000.42,0000.10,-000.04,19.2,25.7,,00.0,0665.3,31.1
2021-09-10T11:08:00Z,00000200,01000000,0001.62,0001.36,0000.84,0000.06,-000.09,0000.19,0000.12,0000.30,-000.23,19.1,25.7,,00.0,0665.3,31.1
2021-09-10T11:09:00Z,00000200,01000000,0001.03,0000.79,0000.78,-000.07,-000.05,0000.08,-000.01,0000.07,0000.56,19.1,25.6,,00.0,0665.3,31.0
2021-09-10T11:10:00Z,00000200,01000000,0001.80,0001.25,0000.75,-000.14,0000.14,-000.13,0000.50,0000.08,0000.15,19.0,25.6,,00.0,0665.3,31.0
2021-09-10T11:11:00Z,00000200,01000000,0000.96,0001.01,0001.04,0000.30,0000.08,0000.14,0000.51,0000.32,-000.00,18.9,25.5,,00.0,0665.3,31.0
2021-09-10T11:12:00Z,00000200,01000000,0000.89,0001.16,0000.72,0000.23,-000.14,0000.09,0000.12,0000.30,0000.58,18.8,25.5,,00.0,0665.3,31.0
2021-09-10T11:13:00Z,00000200,01000000,0002.05,0001.13,0000.82,0000.31,0000.13,-000.06,0000.73,0000.59,0000.36,18.9,25.5,,00.0,0665.3,31.0
2021-09-10T11:14:00Z,00000200,01000000,0000.92,0001.18,0000.93,0000.42,0000.00,-000.24,0000.74,0000.99,0000.56,18.9,25.5,,00.0,0665.3,31.0
2021-09-10T11:15:00Z,00000200,01000000,0001.66,0001.11,0001.05,-000.03,-000.04,0000.18,0000.73,0000.72,0000.68,19.0,25.5,,00.0,0665.3,31.0
2021-09-10T11:16:00Z,00000200,01000000,0001.76,0001.07,0000.80,-000.00,0000.14,0000.12,0000.63,0000.44,0000.50,19.1,25.6,,00.0,0665.4,31.1
2021-09-10T11:17:00Z,00000200,01000000,0001.83,0001.21,0000.88,0000.68,-000.14,0000.25,0000.32,0000.07,0000.12,19.2,25.6,,00.0,0665.4,31.1
2021-09-10T11:18:00Z,00000200,01000000,0001.45,0001.19,0000.96,0000.35,0000.31,0000.14,0000.08,0000.76,0000.31,19.2,25.7,,00.0,0665.4,31.1
2021-09-10T11:19:00Z,00000200,01000000,0001.16,0001.16,0000.51,0000.30,-000.34,-000.22,0000.70,0000.09,0000.33,19.2,25.7,,00.0,0665.4,31.1
2021-09-10T11:20:00Z,00000200,01000000,0001.55,0001.13,0000.79,-000.30,0000.14,-000.13,0000.33,0000.55,0000.03,19.2,25.7,,00.0,0665.4,31.1
2021-09-10T11:21:00Z,00000200,01000000,0001.14,0001.14,0000.74,-000.02,-000.08,-000.14,0000.04,-000.02,0000.11,19.1,25.6,,00.0,0665.4,31.0
2021-09-10T11:22:00Z,00000200,01000000,0001.25,0000.96,0000.67,-000.29,0000.11,-000.06,0000.11,-000.36,-000.02,19.0,25.6,,00.0,0665.4,31.0
2021-09-10T11:23:00Z,00000200,01000000,0001.61,0001.13,0000.74,0000.07,0000.18,-000.04,-000.04,0000.10,-000.19,19.0,25.5,,00.0,0665.4,31.0
2021-09-10T11:24:00Z,00000200,01000000,0001.97,0001.13,0000.66,-000.06,0000.18,0000.31,0000.26,0000.35,0000.13,18.9,25.5,,00.0,0665.4,31.0
2021-09-10T11:25:00Z,00000200,01000000,0000.85,0001.26,0000.86,0000.25,0000.04,0000.36,0000.19,0000.40,0000.40,18.8,25.4,,00.0,0665.4,31.0
2021-09-10T11:26:00Z,00000200,01000000,0001.00,0001.17,0001.21,0000.44,0000.05,0000.01,0000.60,0000.29,0000.35,18.8,25.4,,00.0,0665.4,31.0
2021-09-10T11:27:00Z,00000200,01000000,0001.54,0001.41,0000.74,0000.27,-000.25,-000.13,0000.56,0000.34,0000.44,18.7,25.4,,00.0,0665.4,31.0
2021-09-10T11:28:00Z,00000200,01000000,0001.74,0000.90,0000.62,0000.40,0000.06,-000.08,0000.60,0000.82,0000.72,18.8,25.3,,00.0,0665.4,31.0
2021-09-10T11:29:00Z,00000200,01000000,0001.71,0001.27,0000.62,0000.18,-000.09,0000.10,0000.34,0000.44,0000.04,18.8,25.4,,00.0,0665.4,31.0
2021-09-10T11:30:00Z,00000200,01000000,0000.71,0001.31,0000.60,-000.03,0000.15,-000.17,0000.31,0000.23,0000.19,18.9,25.4,,00.0,0665.4,31.0
2021-09-10T11:31:00Z,00000200,01000000,0000.04,0001.42,0000.82,-000.78,0000.04,0000.41,0000.12,-000.04,0000.06,19.0,25.5,,00.0,0665.5,31.0
2021-09-10T11:32:00Z,00000200,01000000,0000.68,0000.65,0000.80,-000.22,0000.05,-000.11,0000.09,0000.14,0000.38,19.1,25.5,,00.0,0665.5,31.1
2021-09-10T11:33:00Z,00000200,01000000,0001.53,0000.95,0000.93,0000.12,-000.02,0000.25,0000.21,0000.64,0000.28,19.2,25.6,,00.0,0665.5,31.1
2021-09-10T11:34:00Z,00000200,01000000,0001.90,0001.18,0000.71,0000.19,0000.28,-000.03,0000.28,0000.28,0000.21,19.3,25.6,,00.0,0665.5,31.1
2021-09-10T11:35:00Z,00000200,01000000,0001.47,0001.29,0000.86,0000.03,-000.10,0000.17,0000.34,0000.00,0000.35,19.3,25.6,,00.0,0665.5,31.1
2021-09-10T11:36:00Z,00000200,01000000,0001.15,0001.46,0000.58,0000.35,-000.15,0000.05,0000.14,0000.08,-000.22,19.3,25.6,,00.0,0665.5,31.1
2021-09-10T11:37:00Z,00000200,01000000,0001.55,0000.88,0000.88,0000.23,-000.14,-000.06,0000.46,0000.06,-000.01,19.3,25.6,,00.0,0665.5,31.1
2021-09-10T11:38:00Z,00000200,01000000,0001.75,0001.01,0000.90,0000.77,0000.32,-000.08,0000.07,0000.45,0000.19,19.2,25.6,,00.0,0665.5,31.1
2021-09-10T11:39:00Z,00000200,01000000,0001.41,0000.97,0001.04,0000.12,0000.22,-000.09,-000.11,-000.28,0000.04,19.1,25.6,,00.0,0665.5,31.1
2021-09-10T11:40:00Z,00000200,01000000,0001.26,0001.01,0000.79,0000.58,0000.04,0000.16,0000.29,0000.28,0000.14,19.0,25.5,,00.0,0665.5,31.0
2021-09-10T11:41:00Z,00000200,01000000,0001.21,0001.27,0001.00,0000.56,-000.04,0000.18,0000.21,0000.43,0000.28,19.0,25.5,,00.0,0665.5,31.0
2021-09-10T11:42:00Z,00000200,01000000,0001.48,0001.41,0001.04,0000.16,0000.27,-000.10,0000.72,0000.06,0000.18,18.9,25.5,,00.0,0665.5,31.0
2021-09-10T11:43:00Z,00000200,01000000,0001.10,0000.98,0001.02,0000.89,-000.14,-000.05,0000.56,0001.11,0000.72,18.9,25.5,,00.0,0665.5,31.0
2021-09-10T11:44:00Z,00000200,01000000,0001.51,0000.93,0001.29,0000.29,-000.04,0000.34,0000.44,-000.10,0000.08,19.0,25.5,,00.0,0665.5,31.0
2021-09-10T11:45:00Z,00000200,01000000,0001.68,0000.83,0000.84,0000.31,-000.02,0000.29,0000.27,0000.78,0000.58,19.1,25.5,,00.0,0665.5,31.0
2021-09-10T11:46:00Z,00000200,01000000,0001.72,0000.95,0000.88,0000.22,0000.19,0000.24,0000.73,0000.75,0000.47,19.2,25.6,,00.0,0665.5,31.1
2021-09-10T11:47:00Z,00000200,01000000,0001.40,0001.17,0000.78,0000.01,-000.09,0000.08,0000.20,0000.08,0000.18,19.3,25.6,,00.0,0665.5,31.1
2021-09-10T11:48:00Z,00000200,01000000,0001.54,0000.95,0000.56,0000.32,0000.03,0000.03,0000.37,0000.23,0000.07,19.4,25.7,,00.0,0665.5,31.1
2021-09-10T11:49:00Z,00000200,01000000,0000.84,0001.40,0001.00,-000.15,-000.24,0000.02,0000.17,-000.10,0000.37,19.4,25.7,,00.0,0665.5,31.1
2021-09-10T11:50:00Z,00000200,01000000,0000.73,0000.77,0000.81,0000.28,-000.04,0000.14,-000.13,0000.21,-000.25,19.4,25.7,,00.0,0665.6,31.1
2021-09-10T11:51:00Z,00000200,01000000,0001.06,0001.10,0000.79,0000.23,0000.28,0000.05,0000.13,0000.21,0000.31,19.3,25.7,,00.0,0665.6,31.1
2021-09-10T11:52:00Z,00000200,01000000,0001.23,0001.19,0000.82,0000.79,0000.01,-000.04,0000.40,0000.00,0000.13,19.3,25.6,,00.0,0665.6,31.1
2021-09-10T11:53:00Z,00000200,01000000,0001.96,0001.18,0000.76,0000.57,-000.06,0000.12,0000.20,0000.39,-000.11,19.2,25.6,,00.0,0665.5,31.1
2021-09-10T11:54:00Z,00000200,01000000,0001.37,0000.95,0000.83,0000.08,0000.11,0000.50,0000.29,-000.01,0000.17,19.1,25.6,,00.0,0665.5,31.0
2021-09-10T11:55:00Z,00000200,01000000,0001.10,0000.77,0000.60,-000.75,0000.09,0000.10,0000.09,0000.32,0000.51,19.0,25.5,,00.0,0665.5,31.0
2021-09-10T11:56:00Z,00000200,01000000,0000.78,0001.16,0000.84,0000.24,-000.05,-000.25,0000.62,0000.72,0000.30,19.0,25.5,,00.0,0665.5,31.0
2021-09-10T11:57:00Z,00000200,41000000,,,,,,,0000.23,0000.05,0000.22,19.0,25.5,,00.0,0665.3,31.0
2021-09-10T11:58:00Z,00000200,61000000,,,,,,,-000.11,-000.08,-000.15,18.6,25.6,,00.0,0664.5,31.0
2021-09-10T11:59:00Z,00000200,21000000,,,,,,,0000.25,0000.27,0000.11,18.7,25.7,,00.0,0664.5,31.0
